START_TIME,STEP,MOV.,AL01,t_acc.,AL02,t_acc.,E37,t_acc.,H21,t_acc.
1979-07-07 15:00:34.910 ,1,0,4.,24.0,0.,24.0,0.,24.0,0.,24.0
1979-07-07 15:00:58.910 ,2,1,6.,24.0,0.,24.0,0.,24.0,0.,24.0
1979-07-07 15:01:22.910 ,2,0,7.,24.0,1.,24.0,0.,24.0,0.,24.0
1979-07-07 15:01:46.910 ,3,1,6.,24.0,1.,24.0,0.,24.0,0.,24.0
1979-07-07 15:02:10.910 ,3,0,9.,24.0,1.,24.0,0.,24.0,0.,24.0
1979-07-07 15:02:34.900 ,4,1,6.,24.0,2.,24.0,0.,24.0,0.,24.0
1979-07-07 15:02:58.900 ,4,0,9.,24.0,1.,24.0,0.,24.0,0.,24.0
1979-07-07 15:03:22.900 ,5,1,9.,24.0,2.,24.0,0.,24.0,0.,24.0
1979-07-07 15:03:46.900 ,5,0,16.,24.0,5.,24.0,0.,24.0,0.,24.0
1979-07-07 15:04:10.900 ,6,1,17.,24.0,5.,24.0,0.,24.0,0.,24.0
1979-07-07 15:04:34.910 ,6,0,10.,24.0,1.,24.0,0.,24.0,0.,24.0
1979-07-07 15:04:58.910 ,7,1,12.,24.0,0.,24.0,0.,24.0,0.,24.0
1979-07-07 15:05:22.910 ,7,0,34.,24.0,0.,24.0,0.,24.0,0.,24.0
1979-07-07 15:05:46.910 ,7,1,36.,24.0,0.,24.0,0.,24.0,0.,24.0
1979-07-07 15:06:10.900 ,7,0,27.,24.0,0.,24.0,0.,24.0,0.,24.0
1979-07-07 15:06:34.910 ,6,1,29.,24.0,0.,24.0,0.,24.0,0.,24.0
1979-07-07 15:06:58.910 ,6,0,10.,24.0,4.,24.0,0.,24.0,0.,24.0
1979-07-07 15:07:22.910 ,5,1,12.,24.0,3.,24.0,0.,24.0,0.,24.0
1979-07-07 15:07:46.910 ,5,0,13.,24.0,2.,24.0,0.,24.0,0.,24.0
1979-07-07 15:08:10.900 ,4,1,14.,24.0,3.,24.0,0.,24.0,0.,24.0
1979-07-07 15:08:34.910 ,4,0,7.,24.0,3.,24.0,0.,24.0,0.,24.0
1979-07-07 15:08:58.900 ,3,1,8.,24.0,1.,24.0,0.,24.0,0.,24.0
1979-07-07 15:09:22.900 ,3,0,4.,24.0,0.,24.0,0.,24.0,0.,24.0
1979-07-07 15:09:46.900 ,2,1,3.,24.0,1.,24.0,0.,24.0,0.,24.0
1979-07-07 15:10:10.900 ,2,0,4.,24.0,1.,24.0,0.,24.0,0.,24.0
1979-07-07 15:10:34.900 ,1,1,3.,24.0,1.,24.0,0.,24.0,0.,24.0
1979-07-07 15:10:58.900 ,1,0,2.,24.0,1.,24.0,0.,24.0,0.,24.0
1979-07-07 15:11:22.900 ,0,1,4.,24.0,0.,24.0,0.,24.0,0.,24.0
1979-07-07 15:11:46.900 ,0,0,5.,24.0,1.,24.0,0.,24.0,0.,24.0
1979-07-07 15:12:10.900 ,0,1,3.,24.0,1.,24.0,0.,24.0,0.,24.0
1979-07-07 15:12:34.900 ,0,0,2.,24.0,0.,24.0,0.,24.0,0.,24.0
1979-07-07 15:12:58.900 ,1,1,6.,24.0,0.,24.0,0.,24.0,0.,24.0
1979-07-07 15:13:22.900 ,1,0,3.,24.0,1.,24.0,0.,24.0,0.,24.0
1979-07-07 15:14:34.900 ,0,0,4.,24.0,3.,24.0,0.,24.0,0.,24.0
1979-07-07 15:14:58.900 ,0,0,3.,24.0,0.,24.0,0.,24.0,0.,24.0
1979-07-07 15:14:58.900 ,0,0,3.,24.0,0.,24.0,0.,24.0,0.,24.0
1979-07-07 15:15:22.900 ,4,1,7.,24.0,4.,24.0,0.,24.0,0.,24.0
1979-07-07 15:15:46.900 ,4,0,21.,24.0,2.,24.0,0.,24.0,0.,24.0
1979-07-07 15:16:10.900 ,5,1,21.,24.0,7.,24.0,0.,24.0,0.,24.0
1979-07-07 15:16:34.900 ,5,0,15.,24.0,5.,24.0,0.,24.0,0.,24.0
1979-07-07 15:16:58.900 ,6,1,22.,24.0,3.,24.0,0.,24.0,0.,24.0
1979-07-07 15:17:22.900 ,6,0,12.,24.0,3.,24.0,0.,24.0,0.,24.0
1979-07-07 15:17:46.900 ,7,1,14.,24.0,1.,24.0,0.,24.0,0.,24.0
1979-07-07 15:18:10.900 ,7,0,31.,24.0,0.,24.0,0.,24.0,0.,24.0
1979-07-07 15:18:34.900 ,7,1,29.,24.0,0.,24.0,0.,24.0,0.,24.0
1979-07-07 15:18:58.900 ,7,0,32.,24.0,0.,24.0,0.,24.0,0.,24.0
1979-07-07 15:19:22.900 ,6,1,25.,24.0,1.,24.0,0.,24.0,0.,24.0
1979-07-07 15:19:46.900 ,6,0,24.,24.0,4.,24.0,0.,24.0,0.,24.0
1979-07-07 15:20:10.900 ,5,1,14.,24.0,3.,24.0,0.,24.0,0.,24.0
1979-07-07 15:20:34.900 ,5,0,25.,24.0,8.,24.0,0.,24.0,0.,24.0
1979-07-07 15:20:58.900 ,4,1,23.,24.0,6.,24.0,0.,24.0,0.,24.0
1979-07-07 15:21:22.900 ,4,0,13.,24.0,5.,24.0,0.,24.0,0.,24.0
1979-07-07 15:21:46.900 ,3,1,15.,24.0,5.,24.0,0.,24.0,0.,24.0
1979-07-07 15:22:10.900 ,3,0,7.,24.0,1.,24.0,0.,24.0,0.,24.0
1979-07-07 15:22:34.900 ,2,1,4.,24.0,1.,24.0,0.,24.0,0.,24.0
1979-07-07 15:22:58.900 ,2,0,5.,24.0,1.,24.0,0.,24.0,0.,24.0
1979-07-07 15:23:22.900 ,1,1,7.,24.0,0.,24.0,0.,24.0,0.,24.0
1979-07-07 15:23:46.900 ,1,0,10.,24.0,2.,24.0,0.,24.0,0.,24.0
1979-07-07 15:24:10.900 ,0,1,8.,24.0,1.,24.0,0.,24.0,0.,24.0
1979-07-07 15:24:34.900 ,0,0,6.,24.0,3.,24.0,0.,24.0,0.,24.0
1979-07-07 15:24:58.900 ,0,1,4.,24.0,3.,24.0,0.,24.0,0.,24.0
1979-07-07 15:25:22.900 ,0,0,8.,24.0,5.,24.0,0.,24.0,0.,24.0
1979-07-07 15:25:46.900 ,1,1,5.,24.0,3.,24.0,0.,24.0,0.,24.0
1979-07-07 15:26:10.900 ,1,0,4.,24.0,4.,24.0,0.,24.0,0.,24.0
1979-07-07 15:26:34.900 ,2,1,3.,24.0,1.,24.0,0.,24.0,0.,24.0
1979-07-07 15:26:58.900 ,2,0,12.,24.0,1.,24.0,0.,24.0,0.,24.0
1979-07-07 15:27:22.900 ,3,1,6.,24.0,4.,24.0,0.,24.0,0.,24.0
1979-07-07 15:27:46.900 ,3,0,10.,24.0,6.,24.0,0.,24.0,0.,24.0
1979-07-07 15:28:10.900 ,4,1,18.,24.0,4.,24.0,0.,24.0,0.,24.0
1979-07-07 15:28:34.900 ,4,0,19.,24.0,2.,24.0,0.,24.0,0.,24.0
1979-07-07 15:28:58.900 ,5,1,20.,24.0,7.,24.0,0.,24.0,0.,24.0
1979-07-07 15:29:22.900 ,5,0,25.,24.0,0.,24.0,0.,24.0,0.,24.0
1979-07-07 15:29:46.900 ,6,1,22.,24.0,3.,24.0,0.,24.0,0.,24.0
1979-07-07 15:30:10.900 ,6,0,13.,24.0,6.,24.0,0.,24.0,0.,24.0
1979-07-07 15:30:34.900 ,7,0,15.,24.0,2.,24.0,0.,24.0,0.,24.0
1979-07-07 15:30:58.900 ,7,0,29.,24.0,0.,24.0,0.,24.0,0.,24.0
1979-07-07 15:31:22.900 ,5,1,31.,24.0,2.,24.0,0.,24.0,0.,24.0
1979-07-07 15:31:46.900 ,1,1,14.,24.0,5.,24.0,0.,24.0,0.,24.0
1979-07-07 15:32:10.900 ,2,1,9.,24.0,1.,24.0,0.,24.0,0.,24.0
1979-07-07 15:32:34.900 ,6,1,18.,24.0,3.,24.0,0.,24.0,0.,24.0
1979-07-07 15:32:58.900 ,5,1,17.,24.0,4.,24.0,0.,24.0,0.,24.0
1979-07-07 15:33:22.900 ,0,0,12.,24.0,1.,24.0,0.,24.0,0.,24.0
1979-07-07 15:33:48.700 ,2,1,8.,24.0,0.,24.0,0.,24.0,0.,24.0
1979-07-07 15:34:10.900 ,6,1,17.,24.0,5.,24.0,0.,24.0,0.,24.0
1979-07-07 15:34:34.900 ,5,1,32.,24.0,3.,24.0,0.,24.0,0.,24.0
1979-07-07 15:34:58.900 ,1,1,10.,24.0,3.,24.0,0.,24.0,0.,24.0
1979-07-07 15:35:22.900 ,0,0,11.,24.0,1.,24.0,0.,24.0,0.,24.0
1979-07-07 15:35:46.900 ,6,1,11.,24.0,1.,24.0,0.,24.0,0.,24.0
1979-07-07 15:36:10.900 ,5,1,24.,24.0,2.,24.0,0.,24.0,0.,24.0
1979-07-07 15:36:34.900 ,1,1,14.,24.0,3.,24.0,0.,24.0,0.,24.0
1979-07-07 15:36:58.900 ,2,1,10.,24.0,0.,24.0,0.,24.0,0.,24.0
1979-07-07 15:37:22.900 ,6,1,22.,24.0,2.,24.0,0.,24.0,0.,24.0
1979-07-07 15:37:46.900 ,5,1,19.,24.0,2.,24.0,0.,24.0,0.,24.0
1979-07-07 15:38:10.900 ,1,1,13.,24.0,4.,24.0,0.,24.0,0.,24.0
1979-07-07 15:38:34.900 ,2,1,6.,24.0,3.,24.0,0.,24.0,0.,24.0
1979-07-07 15:38:58.900 ,6,1,24.,24.0,6.,24.0,0.,24.0,0.,24.0
1979-07-07 15:39:22.900 ,5,1,30.,24.0,7.,24.0,0.,24.0,0.,24.0
1979-07-07 15:39:46.900 ,1,1,13.,24.0,2.,24.0,0.,24.0,0.,24.0
1979-07-07 15:40:10.900 ,2,1,13.,24.0,2.,24.0,0.,24.0,0.,24.0
1979-07-07 15:40:34.900 ,6,1,26.,24.0,8.,24.0,0.,24.0,0.,24.0
1979-07-07 15:40:58.900 ,5,1,26.,24.0,4.,24.0,0.,24.0,0.,24.0
1979-07-07 15:41:22.900 ,1,1,13.,24.0,3.,24.0,0.,24.0,0.,24.0
1979-07-07 15:41:46.900 ,0,0,8.,24.0,5.,24.0,0.,24.0,0.,24.0
1979-07-07 15:42:10.900 ,0,0,24.,24.0,4.,24.0,0.,24.0,0.,24.0
1979-07-07 15:42:34.900 ,5,1,33.,24.0,3.,24.0,0.,24.0,0.,24.0
1979-07-07 15:42:58.900 ,5,0,28.,24.0,7.,24.0,0.,24.0,0.,24.0
1979-07-07 15:43:22.900 ,4,1,29.,24.0,4.,24.0,0.,24.0,0.,24.0
1979-07-07 15:43:46.900 ,4,0,21.,24.0,4.,24.0,0.,24.0,0.,24.0
1979-07-07 15:44:10.900 ,3,1,20.,24.0,6.,24.0,0.,24.0,0.,24.0
1979-07-07 15:44:34.900 ,3,0,17.,24.0,1.,24.0,0.,24.0,0.,24.0
1979-07-07 15:44:58.900 ,2,1,8.,24.0,1.,24.0,0.,24.0,0.,24.0
1979-07-07 15:45:22.900 ,2,0,9.,24.0,3.,24.0,0.,24.0,0.,24.0
1979-07-07 15:45:46.900 ,1,1,12.,24.0,0.,24.0,0.,24.0,0.,24.0
1979-07-07 15:46:10.900 ,1,0,7.,24.0,1.,24.0,0.,24.0,0.,24.0
1979-07-07 15:46:34.900 ,0,1,11.,24.0,2.,24.0,0.,24.0,0.,24.0
1979-07-07 15:46:58.900 ,0,0,5.,24.0,0.,24.0,0.,24.0,0.,24.0
1979-07-07 15:47:22.900 ,0,1,11.,24.0,2.,24.0,0.,24.0,0.,24.0
1979-07-07 15:47:46.900 ,0,0,4.,24.0,0.,24.0,0.,24.0,0.,24.0
1979-07-07 15:48:10.900 ,1,1,5.,24.0,2.,24.0,0.,24.0,0.,24.0
1979-07-07 15:48:34.900 ,1,0,6.,24.0,2.,24.0,0.,24.0,0.,24.0
1979-07-07 15:48:58.900 ,2,1,11.,24.0,2.,24.0,0.,24.0,0.,24.0
1979-07-07 15:49:22.900 ,2,0,9.,24.0,2.,24.0,0.,24.0,0.,24.0
1979-07-07 15:49:46.900 ,3,1,13.,24.0,1.,24.0,0.,24.0,0.,24.0
1979-07-07 15:50:10.900 ,3,0,12.,24.0,3.,24.0,0.,24.0,0.,24.0
1979-07-07 15:50:34.900 ,4,1,20.,24.0,4.,24.0,0.,24.0,0.,24.0
1979-07-07 15:50:58.900 ,4,0,16.,24.0,7.,24.0,0.,24.0,0.,24.0
1979-07-07 15:51:22.900 ,5,1,23.,24.0,4.,24.0,0.,24.0,0.,24.0
1979-07-07 15:51:46.900 ,5,0,17.,24.0,5.,24.0,0.,24.0,0.,24.0
1979-07-07 15:52:10.900 ,6,1,36.,24.0,11.,24.0,0.,24.0,0.,24.0
1979-07-07 15:52:34.900 ,6,0,25.,24.0,13.,24.0,0.,24.0,0.,24.0
1979-07-07 15:52:58.900 ,7,1,31.,24.0,8.,24.0,0.,24.0,0.,24.0
1979-07-07 15:53:22.900 ,7,0,40.,24.0,0.,24.0,0.,24.0,0.,24.0
1979-07-07 15:53:46.900 ,7,1,30.,24.0,0.,24.0,0.,24.0,0.,24.0
1979-07-07 15:54:10.900 ,7,0,25.,24.0,0.,24.0,0.,24.0,0.,24.0
1979-07-07 15:54:34.900 ,6,1,29.,24.0,0.,24.0,0.,24.0,0.,24.0
1979-07-07 15:54:58.900 ,6,0,23.,24.0,3.,24.0,0.,24.0,0.,24.0
1979-07-07 15:55:22.900 ,5,1,36.,24.0,5.,24.0,0.,24.0,0.,24.0
1979-07-07 15:55:46.900 ,5,0,36.,24.0,7.,24.0,0.,24.0,0.,24.0
1979-07-07 15:56:10.900 ,4,1,37.,24.0,8.,24.0,0.,24.0,0.,24.0
1979-07-07 15:56:34.900 ,4,0,32.,24.0,7.,24.0,0.,24.0,0.,24.0
1979-07-07 15:56:58.900 ,3,1,27.,24.0,5.,24.0,0.,24.0,0.,24.0
1979-07-07 15:57:22.900 ,3,0,18.,24.0,6.,24.0,0.,24.0,0.,24.0
1979-07-07 15:57:46.900 ,2,1,15.,24.0,5.,24.0,0.,24.0,0.,24.0
1979-07-07 15:58:10.900 ,2,0,16.,24.0,4.,24.0,0.,24.0,0.,24.0
1979-07-07 15:58:34.900 ,1,1,10.,24.0,3.,24.0,0.,24.0,0.,24.0
1979-07-07 15:58:58.900 ,1,0,4.,24.0,4.,24.0,0.,24.0,0.,24.0
1979-07-07 15:59:22.900 ,0,1,11.,24.0,3.,24.0,0.,24.0,0.,24.0
1979-07-07 15:59:46.900 ,0,0,6.,24.0,2.,24.0,0.,24.0,0.,24.0
1979-07-07 16:00:10.900 ,0,0,8.,24.0,2.,24.0,0.,24.0,0.,24.0
1979-07-07 16:00:34.900 ,0,0,13.,24.0,2.,24.0,0.,24.0,0.,24.0
1979-07-07 16:00:58.900 ,1,1,9.,24.0,3.,24.0,0.,24.0,0.,24.0
1979-07-07 16:01:22.900 ,1,0,8.,24.0,2.,24.0,0.,24.0,0.,24.0
1979-07-07 16:01:46.900 ,2,1,9.,24.0,5.,24.0,0.,24.0,0.,24.0
1979-07-07 16:02:10.900 ,2,0,7.,24.0,2.,24.0,0.,24.0,0.,24.0
1979-07-07 16:02:34.900 ,3,1,9.,24.0,2.,24.0,0.,24.0,0.,24.0
1979-07-07 16:02:58.900 ,3,0,11.,24.0,1.,24.0,0.,24.0,0.,24.0
1979-07-07 16:03:22.900 ,4,1,15.,24.0,4.,24.0,0.,24.0,0.,24.0
1979-07-07 16:03:46.900 ,4,0,25.,24.0,4.,24.0,0.,24.0,0.,24.0
1979-07-07 16:04:10.900 ,5,1,21.,24.0,4.,24.0,0.,24.0,0.,24.0
1979-07-07 16:04:34.900 ,5,0,41.,24.0,6.,24.0,0.,24.0,0.,24.0
1979-07-07 16:04:58.900 ,6,1,30.,24.0,6.,24.0,0.,24.0,0.,24.0
1979-07-07 16:05:22.900 ,6,0,31.,24.0,7.,24.0,0.,24.0,0.,24.0
1979-07-07 16:05:46.900 ,7,1,35.,24.0,2.,24.0,0.,24.0,0.,24.0
1979-07-07 16:06:10.900 ,7,0,31.,24.0,0.,24.0,0.,24.0,0.,24.0
1979-07-07 16:06:34.900 ,7,1,31.,24.0,0.,24.0,0.,24.0,0.,24.0
1979-07-07 16:06:58.900 ,7,0,27.,24.0,0.,24.0,0.,24.0,0.,24.0
1979-07-07 16:07:22.900 ,6,1,27.,24.0,1.,24.0,0.,24.0,0.,24.0
1979-07-07 16:07:46.900 ,6,0,50.,24.0,10.,24.0,0.,24.0,0.,24.0
1979-07-07 16:08:10.900 ,5,1,40.,24.0,9.,24.0,0.,24.0,0.,24.0
1979-07-07 16:08:34.900 ,5,0,52.,24.0,16.,24.0,0.,24.0,0.,24.0
1979-07-07 16:08:58.900 ,4,1,44.,24.0,8.,24.0,0.,24.0,0.,24.0
1979-07-07 16:09:22.900 ,4,0,17.,24.0,1.,24.0,0.,24.0,0.,24.0
1979-07-07 16:09:46.900 ,3,1,24.,24.0,2.,24.0,0.,24.0,0.,24.0
1979-07-07 16:10:10.900 ,3,0,18.,24.0,3.,24.0,0.,24.0,0.,24.0
1979-07-07 16:10:34.900 ,2,1,9.,24.0,2.,24.0,0.,24.0,0.,24.0
1979-07-07 16:10:58.900 ,2,0,10.,24.0,2.,24.0,0.,24.0,0.,24.0
1979-07-07 16:11:22.900 ,1,1,12.,24.0,3.,24.0,0.,24.0,0.,24.0
1979-07-07 16:11:46.900 ,1,0,10.,24.0,1.,24.0,0.,24.0,0.,24.0
1979-07-07 16:12:10.900 ,0,1,11.,24.0,4.,24.0,0.,24.0,0.,24.0
1979-07-07 16:12:34.900 ,0,0,4.,24.0,1.,24.0,0.,24.0,0.,24.0
1979-07-07 16:12:58.900 ,0,1,10.,24.0,4.,24.0,0.,24.0,0.,24.0
1979-07-07 16:13:22.900 ,0,0,9.,24.0,1.,24.0,0.,24.0,0.,24.0
1979-07-07 16:13:46.900 ,1,1,6.,24.0,2.,24.0,0.,24.0,0.,24.0
1979-07-07 16:14:10.900 ,1,0,10.,24.0,0.,24.0,0.,24.0,0.,24.0
1979-07-07 16:14:34.900 ,2,1,11.,24.0,4.,24.0,0.,24.0,0.,24.0
1979-07-07 16:14:58.900 ,2,0,11.,24.0,4.,24.0,0.,24.0,0.,24.0
1979-07-07 16:15:22.900 ,3,1,12.,24.0,3.,24.0,0.,24.0,0.,24.0
1979-07-07 16:15:46.900 ,3,0,14.,24.0,1.,24.0,0.,24.0,0.,24.0
1979-07-07 16:16:10.900 ,4,1,11.,24.0,5.,24.0,0.,24.0,0.,24.0
1979-07-07 16:16:34.900 ,4,0,8.,24.0,3.,24.0,0.,24.0,0.,24.0
1979-07-07 16:16:58.900 ,5,1,13.,24.0,7.,24.0,0.,24.0,0.,24.0
1979-07-07 16:17:22.900 ,5,0,25.,24.0,8.,24.0,0.,24.0,0.,24.0
1979-07-07 16:17:46.900 ,6,1,27.,24.0,2.,24.0,0.,24.0,0.,24.0
1979-07-07 16:18:10.900 ,6,0,19.,24.0,2.,24.0,0.,24.0,0.,24.0
1979-07-07 16:18:34.900 ,7,0,17.,24.0,2.,24.0,0.,24.0,0.,24.0
1979-07-07 16:18:58.900 ,7,0,29.,24.0,0.,24.0,0.,24.0,0.,24.0
1979-07-07 16:19:22.900 ,5,1,15.,24.0,3.,24.0,0.,24.0,0.,24.0
1979-07-07 16:19:46.900 ,1,1,8.,24.0,1.,24.0,0.,24.0,0.,24.0
1979-07-07 16:20:10.900 ,2,1,8.,24.0,0.,24.0,0.,24.0,0.,24.0
1979-07-07 16:20:34.900 ,0,0,,0,,0,,0,,0
1979-07-07 16:21:03.100 ,0,0,,0,,0,,0,,0
1979-07-07 16:21:22.900 ,0,0,15.,24.0,2.,24.0,0.,24.0,0.,24.0
1979-07-07 16:21:46.900 ,2,1,8.,24.0,2.,24.0,0.,24.0,0.,24.0
1979-07-07 16:22:10.900 ,6,1,12.,24.0,3.,24.0,0.,24.0,0.,24.0
1979-07-07 16:22:34.900 ,5,1,21.,24.0,1.,24.0,0.,24.0,0.,24.0
1979-07-07 16:22:58.900 ,1,1,8.,24.0,1.,24.0,0.,24.0,0.,24.0
1979-07-07 16:23:22.900 ,2,1,4.,24.0,1.,24.0,0.,24.0,0.,24.0
1979-07-07 16:23:46.900 ,6,1,12.,24.0,5.,24.0,0.,24.0,0.,24.0
1979-07-07 16:24:10.900 ,5,1,23.,24.0,3.,24.0,0.,24.0,0.,24.0
1979-07-07 16:24:34.900 ,1,1,13.,24.0,2.,24.0,0.,24.0,0.,24.0
1979-07-07 16:24:58.900 ,2,1,3.,24.0,2.,24.0,0.,24.0,0.,24.0
1979-07-07 16:25:22.900 ,6,1,19.,24.0,3.,24.0,0.,24.0,0.,24.0
1979-07-07 16:25:46.900 ,5,1,,0,,0,,0,,0
1979-07-07 16:26:10.900 ,1,1,7.,24.0,3.,24.0,0.,24.0,0.,24.0
1979-07-07 16:26:34.900 ,2,1,9.,24.0,2.,24.0,0.,24.0,0.,24.0
1979-07-07 16:26:58.900 ,6,1,16.,24.0,1.,24.0,0.,24.0,0.,24.0
1979-07-07 16:27:22.900 ,5,1,18.,24.0,0.,24.0,0.,24.0,0.,24.0
1979-07-07 16:27:46.900 ,1,1,4.,24.0,2.,24.0,0.,24.0,0.,24.0
1979-07-07 16:28:10.900 ,2,1,11.,24.0,1.,24.0,0.,24.0,0.,24.0
1979-07-07 16:28:34.900 ,6,1,13.,24.0,5.,24.0,0.,24.0,0.,24.0
1979-07-07 16:28:58.900 ,5,1,27.,24.0,1.,24.0,0.,24.0,0.,24.0
1979-07-07 16:29:22.900 ,1,1,9.,24.0,5.,24.0,0.,24.0,0.,24.0
1979-07-07 16:29:46.900 ,0,0,4.,24.0,1.,24.0,0.,24.0,0.,24.0
1979-07-07 16:30:10.900 ,0,0,11.,24.0,1.,24.0,0.,24.0,0.,24.0
1979-07-07 16:30:34.900 ,5,1,17.,24.0,1.,24.0,0.,24.0,0.,24.0
1979-07-07 16:30:58.900 ,5,0,16.,24.0,2.,24.0,0.,24.0,0.,24.0
1979-07-07 16:31:22.900 ,4,1,12.,24.0,3.,24.0,0.,24.0,0.,24.0
1979-07-07 16:31:46.900 ,4,0,8.,24.0,1.,24.0,0.,24.0,0.,24.0
1979-07-07 16:32:10.900 ,3,1,11.,24.0,0.,24.0,0.,24.0,0.,24.0
1979-07-07 16:32:34.900 ,3,0,7.,24.0,1.,24.0,0.,24.0,0.,24.0
1979-07-07 16:32:58.900 ,2,1,8.,24.0,5.,24.0,0.,24.0,0.,24.0
1979-07-07 16:33:22.900 ,2,0,5.,24.0,2.,24.0,0.,24.0,0.,24.0
1979-07-07 16:33:46.900 ,1,1,7.,24.0,1.,24.0,0.,24.0,0.,24.0
1979-07-07 16:34:10.900 ,1,0,8.,24.0,1.,24.0,0.,24.0,0.,24.0
1979-07-07 16:34:34.900 ,0,1,11.,24.0,0.,24.0,0.,24.0,0.,24.0
1979-07-07 16:34:58.900 ,0,0,8.,24.0,0.,24.0,0.,24.0,0.,24.0
1979-07-07 16:35:22.900 ,0,1,2.,24.0,1.,24.0,0.,24.0,0.,24.0
1979-07-07 16:35:46.900 ,0,0,6.,24.0,1.,24.0,0.,24.0,0.,24.0
1979-07-07 16:36:10.900 ,1,1,5.,24.0,2.,24.0,0.,24.0,0.,24.0
1979-07-07 16:36:34.900 ,1,0,10.,24.0,1.,24.0,0.,24.0,0.,24.0
1979-07-07 16:36:58.900 ,2,1,8.,24.0,0.,24.0,0.,24.0,0.,24.0
1979-07-07 16:37:22.900 ,2,0,6.,24.0,4.,24.0,0.,24.0,0.,24.0
1979-07-07 16:37:46.900 ,3,1,8.,24.0,1.,24.0,0.,24.0,0.,24.0
1979-07-07 16:38:10.900 ,3,0,7.,24.0,1.,24.0,0.,24.0,0.,24.0
1979-07-07 16:38:34.900 ,4,1,3.,24.0,1.,24.0,0.,24.0,0.,24.0
1979-07-07 16:38:58.900 ,4,0,4.,24.0,2.,24.0,0.,24.0,0.,24.0
1979-07-07 16:39:22.900 ,5,1,11.,24.0,4.,24.0,0.,24.0,0.,24.0
1979-07-07 16:39:46.900 ,5,0,9.,24.0,0.,24.0,0.,24.0,0.,24.0
1979-07-07 16:40:10.900 ,6,1,12.,24.0,2.,24.0,0.,24.0,0.,24.0
1979-07-07 16:40:34.900 ,6,0,9.,24.0,3.,24.0,0.,24.0,0.,24.0
1979-07-07 16:40:58.900 ,7,1,23.,24.0,4.,24.0,0.,24.0,0.,24.0
1979-07-07 16:41:22.900 ,0,0,41.,24.0,0.,24.0,0.,24.0,0.,24.0
1979-07-07 16:41:46.900 ,7,1,29.,24.0,0.,24.0,0.,24.0,0.,24.0
1979-07-07 16:42:10.900 ,7,0,23.,24.0,0.,24.0,0.,24.0,0.,24.0
1979-07-07 16:42:34.900 ,6,1,26.,24.0,1.,24.0,0.,24.0,0.,24.0
1979-07-07 16:42:58.900 ,6,0,12.,24.0,1.,24.0,0.,24.0,0.,24.0
1979-07-07 16:43:22.900 ,5,1,11.,24.0,3.,24.0,0.,24.0,0.,24.0
1979-07-07 16:43:46.900 ,5,0,11.,24.0,2.,24.0,0.,24.0,0.,24.0
1979-07-07 16:44:10.900 ,4,1,10.,24.0,5.,24.0,0.,24.0,0.,24.0
1979-07-07 16:44:34.900 ,4,0,10.,24.0,1.,24.0,0.,24.0,0.,24.0
1979-07-07 16:44:58.900 ,3,1,7.,24.0,3.,24.0,0.,24.0,0.,24.0
1979-07-07 16:45:22.900 ,3,0,5.,24.0,4.,24.0,0.,24.0,0.,24.0
1979-07-07 16:45:46.900 ,2,1,4.,24.0,0.,24.0,0.,24.0,0.,24.0
1979-07-07 16:46:10.900 ,2,0,4.,24.0,4.,24.0,0.,24.0,0.,24.0
1979-07-07 16:46:34.900 ,1,1,6.,24.0,0.,24.0,0.,24.0,0.,24.0
1979-07-07 16:46:58.900 ,1,0,6.,24.0,2.,24.0,0.,24.0,0.,24.0
1979-07-07 16:47:22.900 ,0,1,3.,24.0,0.,24.0,0.,24.0,0.,24.0
1979-07-07 16:47:46.900 ,0,0,4.,24.0,1.,24.0,0.,24.0,0.,24.0
1979-07-07 16:48:10.900 ,0,1,3.,24.0,2.,24.0,0.,24.0,0.,24.0
1979-07-07 16:48:34.900 ,0,0,2.,24.0,1.,24.0,0.,24.0,0.,24.0
1979-07-07 16:48:58.900 ,1,1,7.,24.0,0.,24.0,0.,24.0,0.,24.0
1979-07-07 16:49:22.900 ,1,0,6.,24.0,1.,24.0,0.,24.0,0.,24.0
1979-07-07 16:49:46.900 ,2,1,5.,24.0,0.,24.0,0.,24.0,0.,24.0
1979-07-07 16:50:10.900 ,2,0,7.,24.0,1.,24.0,0.,24.0,0.,24.0
1979-07-07 16:50:34.900 ,3,1,6.,24.0,3.,24.0,0.,24.0,0.,24.0
1979-07-07 16:50:58.900 ,3,0,7.,24.0,2.,24.0,0.,24.0,0.,24.0
1979-07-07 16:51:22.900 ,4,1,6.,24.0,1.,24.0,0.,24.0,0.,24.0
1979-07-07 16:51:46.900 ,4,0,5.,24.0,1.,24.0,0.,24.0,0.,24.0
1979-07-07 16:52:10.900 ,5,1,9.,24.0,0.,24.0,0.,24.0,0.,24.0
1979-07-07 16:52:34.900 ,5,0,10.,24.0,4.,24.0,0.,24.0,0.,24.0
1979-07-07 16:52:58.900 ,6,1,11.,24.0,2.,24.0,0.,24.0,0.,24.0
1979-07-07 16:53:22.900 ,6,0,11.,24.0,1.,24.0,0.,24.0,0.,24.0
1979-07-07 16:53:46.900 ,7,1,17.,24.0,0.,24.0,0.,24.0,0.,24.0
1979-07-07 16:54:10.900 ,7,0,33.,24.0,0.,24.0,0.,24.0,0.,24.0
1979-07-07 16:54:34.900 ,7,1,26.,24.0,0.,24.0,0.,24.0,0.,24.0
1979-07-07 16:54:58.900 ,7,0,43.,24.0,0.,24.0,0.,24.0,0.,24.0
1979-07-07 16:55:22.900 ,6,1,28.,24.0,0.,24.0,0.,24.0,0.,24.0
1979-07-07 16:55:46.900 ,6,0,5.,24.0,3.,24.0,0.,24.0,0.,24.0
1979-07-07 16:56:10.900 ,5,1,12.,24.0,4.,24.0,0.,24.0,0.,24.0
1979-07-07 16:56:34.900 ,5,0,14.,24.0,2.,24.0,0.,24.0,0.,24.0
1979-07-07 16:56:58.900 ,4,1,10.,24.0,1.,24.0,0.,24.0,0.,24.0
1979-07-07 16:57:22.900 ,4,0,10.,24.0,0.,24.0,0.,24.0,0.,24.0
1979-07-07 16:57:46.900 ,3,1,9.,24.0,2.,24.0,0.,24.0,0.,24.0
1979-07-07 16:58:10.900 ,3,0,6.,24.0,1.,24.0,0.,24.0,0.,24.0
1979-07-07 16:58:34.900 ,2,1,4.,24.0,3.,24.0,0.,24.0,0.,24.0
1979-07-07 16:58:58.900 ,2,0,6.,24.0,0.,24.0,0.,24.0,0.,24.0
1979-07-07 16:59:22.900 ,1,1,8.,24.0,3.,24.0,0.,24.0,0.,24.0
1979-07-07 16:59:46.900 ,1,0,5.,24.0,2.,24.0,0.,24.0,0.,24.0
1979-07-07 17:00:10.900 ,0,1,10.,24.0,2.,24.0,0.,24.0,0.,24.0
1979-07-07 17:00:34.900 ,0,0,11.,24.0,0.,24.0,0.,24.0,0.,24.0
1979-07-07 17:00:58.900 ,0,1,5.,24.0,0.,24.0,0.,24.0,0.,24.0
1979-07-07 17:01:22.900 ,0,0,4.,24.0,2.,24.0,0.,24.0,0.,24.0
1979-07-07 17:01:46.900 ,1,1,9.,24.0,1.,24.0,0.,24.0,0.,24.0
1979-07-07 17:02:10.900 ,1,0,5.,24.0,1.,24.0,0.,24.0,0.,24.0
1979-07-07 17:02:34.900 ,2,1,3.,24.0,2.,24.0,0.,24.0,0.,24.0
1979-07-07 17:02:58.900 ,2,0,6.,24.0,3.,24.0,0.,24.0,0.,24.0
1979-07-07 17:03:22.900 ,3,1,3.,24.0,1.,24.0,0.,24.0,0.,24.0
1979-07-07 17:03:46.900 ,3,0,6.,24.0,1.,24.0,0.,24.0,0.,24.0
1979-07-07 17:04:10.900 ,4,1,7.,24.0,0.,24.0,0.,24.0,0.,24.0
1979-07-07 17:04:34.900 ,4,0,6.,24.0,2.,24.0,0.,24.0,0.,24.0
1979-07-07 17:04:58.900 ,5,1,12.,24.0,0.,24.0,0.,24.0,0.,24.0
1979-07-07 17:05:22.900 ,5,0,4.,24.0,2.,24.0,0.,24.0,0.,24.0
1979-07-07 17:05:46.900 ,6,1,12.,24.0,4.,24.0,0.,24.0,0.,24.0
1979-07-07 17:06:10.900 ,6,0,15.,24.0,5.,24.0,0.,24.0,0.,24.0
1979-07-07 17:06:34.900 ,7,0,24.,24.0,4.,24.0,0.,24.0,0.,24.0
1979-07-07 17:06:58.900 ,7,0,30.,24.0,0.,24.0,0.,24.0,0.,24.0
1979-07-07 17:07:22.900 ,5,1,33.,24.0,2.,24.0,0.,24.0,0.,24.0
1979-07-07 17:07:46.900 ,1,1,7.,24.0,2.,24.0,0.,24.0,0.,24.0
1979-07-07 17:08:10.900 ,2,1,5.,24.0,1.,24.0,0.,24.0,0.,24.0
1979-07-07 17:08:34.900 ,6,1,8.,24.0,0.,24.0,0.,24.0,0.,24.0
1979-07-07 17:08:58.900 ,5,1,21.,24.0,2.,24.0,0.,24.0,0.,24.0
1979-07-07 17:09:22.900 ,1,1,4.,24.0,0.,24.0,0.,24.0,0.,24.0
1979-07-07 17:09:46.900 ,2,1,6.,24.0,1.,24.0,0.,24.0,0.,24.0
1979-07-07 17:10:10.900 ,6,1,12.,24.0,3.,24.0,0.,24.0,0.,24.0
1979-07-07 17:10:34.900 ,5,1,22.,24.0,1.,24.0,0.,24.0,0.,24.0
1979-07-07 17:10:58.900 ,1,1,4.,24.0,1.,24.0,0.,24.0,0.,24.0
1979-07-07 17:11:22.900 ,2,1,6.,24.0,1.,24.0,0.,24.0,0.,24.0
1979-07-07 17:11:46.900 ,6,1,12.,24.0,1.,24.0,0.,24.0,0.,24.0
1979-07-07 17:12:10.900 ,5,1,17.,24.0,1.,24.0,0.,24.0,0.,24.0
1979-07-07 17:12:34.900 ,1,1,3.,24.0,1.,24.0,0.,24.0,0.,24.0
1979-07-07 17:12:58.900 ,2,1,4.,24.0,0.,24.0,0.,24.0,0.,24.0
1979-07-07 17:13:22.900 ,6,1,13.,24.0,5.,24.0,0.,24.0,0.,24.0
1979-07-07 17:13:46.900 ,5,1,21.,24.0,2.,24.0,0.,24.0,0.,24.0
1979-07-07 17:14:10.900 ,1,1,3.,24.0,2.,24.0,0.,24.0,0.,24.0
1979-07-07 17:14:34.900 ,2,1,2.,24.0,2.,24.0,0.,24.0,0.,24.0
1979-07-07 17:14:58.900 ,6,1,11.,24.0,3.,24.0,0.,24.0,0.,24.0
1979-07-07 17:15:22.900 ,5,1,15.,24.0,1.,24.0,0.,24.0,0.,24.0
1979-07-07 17:15:46.900 ,1,1,5.,24.0,0.,24.0,0.,24.0,0.,24.0
1979-07-07 17:16:10.900 ,2,1,3.,24.0,1.,24.0,0.,24.0,0.,24.0
1979-07-07 17:16:34.900 ,6,1,9.,24.0,0.,24.0,0.,24.0,0.,24.0
1979-07-07 17:16:58.900 ,5,1,22.,24.0,1.,24.0,0.,24.0,0.,24.0
1979-07-07 17:17:22.900 ,1,1,7.,24.0,1.,24.0,0.,24.0,0.,24.0
1979-07-07 17:17:46.900 ,0,0,7.,24.0,0.,24.0,0.,24.0,0.,24.0
1979-07-07 17:18:10.900 ,0,0,8.,24.0,2.,24.0,0.,24.0,0.,24.0
1979-07-07 17:18:34.900 ,5,1,20.,24.0,1.,24.0,0.,24.0,0.,24.0
1979-07-07 17:18:58.900 ,5,0,12.,24.0,3.,24.0,0.,24.0,0.,24.0
1979-07-07 17:19:22.900 ,4,1,12.,24.0,2.,24.0,0.,24.0,0.,24.0
1979-07-07 17:19:46.900 ,4,0,11.,24.0,0.,24.0,0.,24.0,0.,24.0
1979-07-07 17:20:10.900 ,3,1,8.,24.0,1.,24.0,0.,24.0,0.,24.0
1979-07-07 17:20:34.900 ,3,0,13.,24.0,3.,24.0,0.,24.0,0.,24.0
1979-07-07 17:20:58.900 ,2,1,4.,24.0,2.,24.0,0.,24.0,0.,24.0
1979-07-07 17:21:22.900 ,0,0,3.,24.0,0.,24.0,0.,24.0,0.,24.0
1979-07-07 17:21:46.900 ,1,1,7.,24.0,0.,24.0,0.,24.0,0.,24.0
1979-07-07 17:22:10.900 ,1,0,8.,24.0,2.,24.0,0.,24.0,0.,24.0
1979-07-07 17:22:34.900 ,0,1,7.,24.0,3.,24.0,0.,24.0,0.,24.0
1979-07-07 17:22:58.900 ,0,0,11.,24.0,1.,24.0,0.,24.0,0.,24.0
1979-07-07 17:23:22.900 ,0,1,10.,24.0,1.,24.0,0.,24.0,0.,24.0
1979-07-07 17:23:46.900 ,0,0,7.,24.0,1.,24.0,0.,24.0,0.,24.0
1979-07-07 17:24:10.900 ,1,1,6.,24.0,2.,24.0,0.,24.0,0.,24.0
1979-07-07 17:24:34.900 ,1,0,8.,24.0,1.,24.0,0.,24.0,0.,24.0
1979-07-07 17:24:58.900 ,2,1,4.,24.0,0.,24.0,0.,24.0,0.,24.0
1979-07-07 17:25:22.900 ,2,0,8.,24.0,2.,24.0,0.,24.0,0.,24.0
1979-07-07 17:25:46.900 ,3,1,6.,24.0,2.,24.0,0.,24.0,0.,24.0
1979-07-07 17:26:10.900 ,3,0,8.,24.0,2.,24.0,0.,24.0,0.,24.0
1979-07-07 17:26:34.900 ,4,1,14.,24.0,0.,24.0,0.,24.0,0.,24.0
1979-07-07 17:26:58.900 ,4,0,3.,24.0,2.,24.0,0.,24.0,0.,24.0
1979-07-07 17:27:22.900 ,5,1,12.,24.0,2.,24.0,0.,24.0,0.,24.0
1979-07-07 17:27:46.900 ,5,0,21.,24.0,1.,24.0,0.,24.0,0.,24.0
1979-07-07 17:28:10.900 ,6,1,11.,24.0,4.,24.0,0.,24.0,0.,24.0
1979-07-07 17:28:34.900 ,6,0,15.,24.0,3.,24.0,0.,24.0,0.,24.0
1979-07-07 17:28:58.900 ,7,1,21.,24.0,3.,24.0,0.,24.0,0.,24.0
1979-07-07 17:29:22.900 ,7,0,24.,24.0,0.,24.0,0.,24.0,0.,24.0
1979-07-07 17:29:46.900 ,7,1,34.,24.0,0.,24.0,0.,24.0,0.,24.0
1979-07-07 17:30:10.900 ,7,0,32.,24.0,0.,24.0,0.,24.0,0.,24.0
1979-07-07 17:30:34.900 ,6,1,29.,24.0,0.,24.0,0.,24.0,0.,24.0
1979-07-07 17:30:58.900 ,6,0,15.,24.0,6.,24.0,0.,24.0,0.,24.0
1979-07-07 17:31:22.900 ,5,1,20.,24.0,3.,24.0,0.,24.0,0.,24.0
1979-07-07 17:31:46.900 ,5,0,20.,24.0,5.,24.0,0.,24.0,0.,24.0
1979-07-07 17:32:10.900 ,4,1,10.,24.0,1.,24.0,0.,24.0,0.,24.0
1979-07-07 17:32:34.900 ,4,0,16.,24.0,7.,24.0,0.,24.0,0.,24.0
1979-07-07 17:32:58.900 ,3,1,18.,24.0,1.,24.0,0.,24.0,0.,24.0
1979-07-07 17:33:22.900 ,3,0,8.,24.0,3.,24.0,0.,24.0,0.,24.0
1979-07-07 17:33:46.900 ,2,1,4.,24.0,3.,24.0,0.,24.0,0.,24.0